Weather History for KRKD - July, 2014

Change the Weather History Date:

Friday, July 4, 2014

  Actual Average (WUND) Record (WUND)
Temperature  
Mean Temperature 66 °F -  
Max Temperature 73 °F - - (-1)
Min Temperature 60 °F - - (-1)
Cooling Degree Days 2    
Growing Degree Days 16 (Base 50)    
Moisture  
Dew Point 64 °F    
Average Humidity 92    
Maximum Humidity 100    
Minimum Humidity 83    
Precipitation  
Precipitation 0.97 in - - ()
Sea Level Pressure  
Sea Level Pressure 29.92 in    
Wind  
Wind Speed 5 mph (SW)    
Max Wind Speed 13 mph    
Max Gust Speed 17 mph    
Visibility 8 miles    
Events      
Averages and records for this station are not official NWS values.
T = Trace of Precipitation, MM = Missing Value Source: NWS Daily Summary

Daily Weather History Graph

Daily Weather History Graph

Search for Another Location

Airport or City:

Trip Planner

Search our weather history database for the weather conditions in past years. The results will help you decide how hot, cold, wet, or windy it might be!

Date:

Astronomy

Jul. 04, 2014 Rise Set
Actual Time 4:58 AM EDT 8:22 PM EDT
Civil Twilight 4:22 AM EDT 8:58 PM EDT
Nautical Twilight 3:35 AM EDT 9:45 PM EDT
Astronomical Twilight 2:36 AM EDT 10:44 PM EDT
Moon 12:07 PM EDT (7/4) 11:56 PM EDT (7/4)
Length of Visible Light 16h 35m
Length of Day
15h 23m
Waxing Crescent, 42% of the Moon is Illuminated
Jul 4
Waxing Crescent
Jul 5
First Quarter
Jul 12
Full
Jul 18
Last Quarter
Jul 26
New

Hourly Weather History & Observations

Time (EDT) Temp. Dew Point Humidity Pressure Visibility Wind Dir Wind Speed Gust Speed Precip Events Conditions
12:15 AM 62.6 °F 62.6 °F 100% 29.93 in 7.0 mi Calm Calm - N/A   Overcast
12:35 AM 62.6 °F 62.6 °F 100% 29.94 in 7.0 mi Calm Calm - N/A   Overcast
12:55 AM 62.6 °F 62.6 °F 100% 29.92 in 4.0 mi Calm Calm - N/A   Overcast
1:15 AM 62.6 °F 60.8 °F 94% 29.96 in 4.0 mi SSW 8.1 mph - N/A   Overcast
1:35 AM 64.4 °F 62.6 °F 94% 29.95 in 9.0 mi West 8.1 mph - N/A   Mostly Cloudy
1:55 AM 64.4 °F 62.6 °F 94% 29.90 in 10.0 mi Calm Calm - 0.04 in   Mostly Cloudy
2:15 AM 64.4 °F 64.4 °F 100% 29.89 in 5.0 mi SE 4.6 mph - N/A   Partly Cloudy
2:35 AM 62.6 °F 60.8 °F 94% 29.87 in 3.0 mi Calm Calm - N/A   Partly Cloudy
2:55 AM 62.6 °F 60.8 °F 94% 29.87 in 5.0 mi Calm Calm - N/A   Clear
3:15 AM 60.8 °F 60.8 °F 100% 29.88 in 2.0 mi Calm Calm - N/A   Mostly Cloudy
3:35 AM 62.6 °F 60.8 °F 94% 29.89 in 1.8 mi Calm Calm - N/A   Overcast
3:55 AM 60.8 °F 59.0 °F 94% 29.91 in 5.0 mi SSW 6.9 mph - N/A   Mostly Cloudy
4:15 AM 62.6 °F 60.8 °F 94% 29.92 in 7.0 mi SW 5.8 mph - N/A   Partly Cloudy
4:35 AM 62.6 °F 60.8 °F 94% 29.92 in 8.0 mi WSW 4.6 mph - N/A   Clear
4:55 AM 62.6 °F 62.6 °F 100% 29.93 in 10.0 mi SW 4.6 mph - N/A   Clear
5:15 AM 62.6 °F 62.6 °F 100% 29.94 in 9.0 mi West 4.6 mph - N/A   Clear
5:35 AM 64.4 °F 62.6 °F 94% 29.95 in 10.0 mi SW 5.8 mph - N/A   Clear
5:55 AM 64.4 °F 62.6 °F 94% 29.96 in 10.0 mi SW 8.1 mph - N/A   Clear
6:15 AM 64.4 °F 64.4 °F 100% 29.96 in 10.0 mi WSW 10.4 mph - N/A   Scattered Clouds
6:35 AM 64.4 °F 64.4 °F 100% 29.97 in 10.0 mi SW 11.5 mph - N/A   Mostly Cloudy
6:55 AM 64.4 °F 64.4 °F 100% 29.97 in 10.0 mi SW 12.7 mph 16.1 mph N/A   Partly Cloudy
7:15 AM 66.2 °F 64.4 °F 94% 29.98 in 10.0 mi SW 9.2 mph - N/A   Scattered Clouds
7:35 AM 66.2 °F 64.4 °F 94% 29.98 in 10.0 mi WSW 10.4 mph - N/A   Mostly Cloudy
7:55 AM 68.0 °F 66.2 °F 94% 29.99 in 10.0 mi WSW 10.4 mph - N/A   Mostly Cloudy
8:15 AM 69.8 °F 66.2 °F 88% 29.99 in 10.0 mi WSW 10.4 mph 16.1 mph N/A   Overcast
8:35 AM 69.8 °F 66.2 °F 88% 29.98 in 10.0 mi West 10.4 mph - N/A   Overcast
8:55 AM 69.8 °F 66.2 °F 88% 29.98 in 10.0 mi WSW 9.2 mph - N/A   Overcast
9:15 AM 69.8 °F 66.2 °F 88% 29.98 in 10.0 mi WSW 9.2 mph - N/A   Overcast
9:35 AM 69.8 °F 66.2 °F 88% 29.97 in 10.0 mi WSW 12.7 mph 17.3 mph N/A   Overcast
9:55 AM 71.6 °F 66.2 °F 83% 29.97 in 10.0 mi West 10.4 mph - N/A   Overcast
10:15 AM 71.6 °F 68.0 °F 88% 29.96 in 10.0 mi SW 6.9 mph - N/A   Overcast
10:35 AM 71.6 °F 68.0 °F 88% 29.97 in 10.0 mi SW 6.9 mph - N/A   Overcast
10:55 AM 73.4 °F 68.0 °F 83% 29.98 in 10.0 mi SW 9.2 mph - N/A   Mostly Cloudy
11:15 AM 73.4 °F 69.8 °F 88% 29.98 in 10.0 mi West 8.1 mph - N/A   Mostly Cloudy
11:35 AM 73.4 °F 68.0 °F 83% 29.98 in 10.0 mi WSW 5.8 mph - N/A   Overcast
11:55 AM 73.4 °F 68.0 °F 83% 29.97 in 10.0 mi South 6.9 mph - N/A   Mostly Cloudy
12:15 PM 69.8 °F 66.2 °F 88% 29.97 in 10.0 mi South 8.1 mph - N/A   Mostly Cloudy
12:35 PM 69.8 °F 66.2 °F 88% 29.96 in 10.0 mi South 8.1 mph - N/A   Mostly Cloudy
12:55 PM 69.8 °F 64.4 °F 83% 29.95 in 10.0 mi South 9.2 mph - N/A   Scattered Clouds
1:15 PM 68.0 °F 64.4 °F 88% 29.96 in 10.0 mi South 10.4 mph - N/A   Mostly Cloudy
1:35 PM 66.2 °F 62.6 °F 88% 29.96 in 10.0 mi SSE 9.2 mph - N/A   Mostly Cloudy
1:55 PM 66.2 °F 64.4 °F 94% 29.95 in 10.0 mi SSE 6.9 mph - N/A   Mostly Cloudy
2:15 PM 66.2 °F 62.6 °F 88% 29.95 in 10.0 mi South 4.6 mph - N/A   Mostly Cloudy
2:35 PM 68.0 °F 64.4 °F 88% 29.94 in 10.0 mi South 4.6 mph - N/A   Partly Cloudy
2:55 PM 68.0 °F 64.4 °F 88% 29.94 in 10.0 mi South 3.5 mph - N/A   Clear
3:15 PM 68.0 °F 64.4 °F 88% 29.93 in 10.0 mi South 5.8 mph - N/A   Partly Cloudy
3:35 PM 68.0 °F 64.4 °F 88% 29.93 in 10.0 mi SSW 4.6 mph - N/A   Clear
3:55 PM 69.8 °F 64.4 °F 83% 29.93 in 10.0 mi South 4.6 mph - N/A   Partly Cloudy
4:15 PM 71.6 °F 66.2 °F 83% 29.93 in 10.0 mi SSW 4.6 mph - N/A   Clear
4:35 PM 69.8 °F 64.4 °F 83% 29.94 in 10.0 mi SSW 5.8 mph - N/A   Scattered Clouds
4:55 PM 69.8 °F 66.2 °F 88% 29.93 in 10.0 mi WSW 3.5 mph - N/A   Scattered Clouds
5:15 PM 69.8 °F 66.2 °F 88% 29.93 in 9.0 mi Calm Calm - N/A   Mostly Cloudy
5:35 PM 66.2 °F 64.4 °F 94% 29.92 in 5.0 mi Calm Calm - 0.01 in   Overcast
5:55 PM 68.0 °F 66.2 °F 94% 29.91 in 7.0 mi Calm Calm - 0.01 in   Mostly Cloudy
6:15 PM 68.0 °F 66.2 °F 94% 29.91 in 4.0 mi Calm Calm - 0.03 in   Mostly Cloudy
6:35 PM 68.0 °F 66.2 °F 94% 29.91 in 3.0 mi East 5.8 mph - 0.07 in   Mostly Cloudy
6:55 PM 64.4 °F 64.4 °F 100% 29.91 in 2.0 mi Calm Calm - 0.14 in   Overcast
7:15 PM 66.2 °F 64.4 °F 94% 29.92 in 2.5 mi Calm Calm - 0.10 in   Mostly Cloudy
7:35 PM 66.2 °F 64.4 °F 94% 29.91 in 3.0 mi Calm Calm - 0.18 in   Mostly Cloudy
7:55 PM 64.4 °F 64.4 °F 100% 29.91 in 3.0 mi North 4.6 mph - 0.26 in   Overcast
8:15 PM 64.4 °F 62.6 °F 94% 29.90 in 8.0 mi North 5.8 mph - 0.04 in   Overcast
8:35 PM 64.4 °F 62.6 °F 94% 29.88 in 8.0 mi North 5.8 mph - 0.07 in   Overcast
8:55 PM 64.4 °F 62.6 °F 94% 29.87 in 9.0 mi NNE 5.8 mph - 0.11 in   Overcast
9:15 PM 64.4 °F 64.4 °F 100% 29.87 in 9.0 mi NNE 4.6 mph - 0.05 in   Overcast
9:35 PM 64.4 °F 64.4 °F 100% 29.85 in 8.0 mi NNE 8.1 mph - 0.14 in   Overcast
9:55 PM 64.4 °F 62.6 °F 94% 29.83 in 10.0 mi North 6.9 mph - 0.18 in   Overcast
10:15 PM 64.4 °F 62.6 °F 94% 29.82 in 10.0 mi NNW 6.9 mph - 0.02 in   Scattered Clouds
10:35 PM 64.4 °F 62.6 °F 94% 29.80 in 10.0 mi North 5.8 mph - 0.02 in   Mostly Cloudy
10:55 PM 64.4 °F 62.6 °F 94% 29.78 in 10.0 mi North 6.9 mph - 0.03 in   Overcast
11:15 PM 64.4 °F 62.6 °F 94% 29.77 in 7.0 mi North 5.8 mph - 0.07 in   Overcast
11:35 PM 64.4 °F 62.6 °F 94% 29.77 in 7.0 mi NNE 10.4 mph 17.3 mph 0.16 in   Mostly Cloudy
11:55 PM 62.6 °F 60.8 °F 94% 29.76 in 10.0 mi North 8.1 mph 16.1 mph 0.20 in   Overcast